Regional Weather Roundup
Issued by NWS

Home | Current Version | Previous Version | Graphics & Text | Print | Product List | Glossary On
Versions: 1 2 3 4 5 6 7 8 9 10 11 12 13 14 15 16 17 18 19 20 21 22 23 24 25 26 27 28 29 30 31 32 33 34 35 36 37 38 39 40 41 42 43 44 45 46 47 48 49 50
916
ASUS43 KDMX 231303
RWRIA

WEATHER ROUNDUP FOR IOWA
NATIONAL WEATHER SERVICE DES MOINES IA
800 AM CDT SAT JUL 23 2016

NOTE: "FAIR" INDICATES FEW OR NO CLOUDS BELOW 12,000 FEET WITH NO
SIGNIFICANT WEATHER AND/OR OBSTRUCTIONS TO VISIBILITY.

* - THESE STATIONS ARE NOT NWS STATIONS...THUS NOT UNDER NWS
QUALITY CONTROL.  THEY ALSO DO NOT REPORT WEATHER SUCH
AS PRECIPITATION OR FOG.

IAZ001>003-012>014-020>022-031>034-043>046-231400-
   NORTHWEST IOWA

CITY           SKY/WX    TMP DP  RH WIND       PRES   REMARKS
CARROLL *      CLOUDY    79  77  94 E6        29.88F HX  83
CHEROKEE *     CLOUDY    78  76  94 SE8       29.87R HX  80
DENISON *      CLOUDY    79  72  78 VRB7G13   29.83F HX  82
LE MARS *      CLOUDY    79  77  94 SW10      29.86R HX  83
SHELDON *      CLOUDY    77  77 100 CALM      29.85F
SIOUX CITY     CLOUDY    79  75  87 S9        29.84R HX  83
SPENCER        CLOUDY    78  73  84 S8        29.87S HX  81
STORM LAKE *   PTSUNNY   77  75  94 SE9       29.90R
$$

IAZ055>058-069>071-079>083-090>094-231400-
   SOUTHWEST IOWA

CITY           SKY/WX    TMP DP  RH WIND       PRES   REMARKS
ATLANTIC *     CLOUDY    79  73  83 S8        29.88F HX  82
CLARINDA *       N/A     81  75  83 MISG      29.93R HX  86
COUNCIL BLFS * CLOUDY    79  70  73 S10       29.86F HX  81
CRESTON *      CLOUDY    79  75  89 S8        29.94R HX  82
HARLAN  *      PTSUNNY   77  72  83 S8        29.89F
LAMONI         CLOUDY    78  76  93 S7        29.93R HX  81
RED OAK *      CLOUDY    77  72  83 S7        29.89F
SHENANDOAH *   CLOUDY    79  73  83 S6G13     29.90S HX  82
$$

IAZ047>049-059>061-072>074-084-231400-
   CENTRAL IOWA

CITY           SKY/WX    TMP DP  RH WIND       PRES   REMARKS
AMES           CLOUDY    78  78 100 SE5       29.91R HX  81
ANKENY *         N/A    N/A N/A N/A MISG        N/A
BOONE *        CLOUDY    79  77  94 CALM      29.92R HX  83
CHARITON *       N/A    N/A N/A N/A MISG        N/A
DES MOINES     CLOUDY    82  76  81 S10       29.89S HX  89
GRINNELL*      MOSUNNY   79  75  87 SE6       29.93F HX  82
KNOXVILLE *    MOSUNNY   81  77  89 SE7       29.91S HX  88
MARSHALLTOWN   CLOUDY    79  77  94 E8        29.92F HX  83
NEWTON *       MOSUNNY   79  79 100 S7        29.91F HX  83
PERRY *        CLOUDY    79  78  96 CALM      29.91R HX  83
$$

IAZ004>006-015-016-023>025-035-036-231400-
   NORTH CENTRAL IOWA

CITY           SKY/WX    TMP DP  RH WIND       PRES   REMARKS
ALGONA *       CLOUDY    79  77  94 S14       29.92S HX  83
ESTHERVILLE    CLOUDY    76  76 100 S12       29.88S
FORT DODGE *   CLOUDY    77  75  94 S6        29.94R THUNDER
MASON CITY     CLOUDY    78  76  93 SE12      29.93F HX  81
FOREST CITY *    N/A    N/A N/A N/A MISG        N/A
IOWA FALLS *     N/A     78  75  92 SE6       29.94R HX  80
$$

IAZ007>011-017>019-026>030-037>042-050>054-066-231400-
   NORTHEAST IOWA

CITY           SKY/WX    TMP DP  RH WIND       PRES   REMARKS
CEDAR RAPIDS   MOSUNNY   79  79 100 SE6       29.94F HX  84
CHARLES CITY * MOSUNNY   77  77 100 SE7G13    29.94R
CLINTON *      SUNNY     81  78  91 S5        29.97F HX  89
DECORAH *      RAIN      75  66  73 S8G24     29.92F
DUBUQUE        SUNNY     80  76  87 SE6       29.98F HX  86
MONTICELLO *   CLOUDY    79  77  94 SE5       29.95F HX  83
OELWEIN *      CLOUDY    77  77 100 SE6       29.95S
WATERLOO       CLOUDY    78  76  93 SE8       29.92R HX  81
$$

IAZ064-065-067-068-078-231400-
   EAST CENTRAL IOWA

CITY           SKY/WX    TMP DP  RH WIND       PRES   REMARKS
DAVENPORT      SUNNY     79  77  94 SE6       29.97F HX  83
IOWA CITY      MOSUNNY   79  77  94 SE7       29.96S HX  83
MT. PLEASANT * CLOUDY    80  80 100 S6        29.96S HX  90
MUSCATINE *    MOSUNNY   79  77  94 VRB3      29.96S HX  83
QUAD CITIES    SUNNY     80  75  84 SE3       29.96F HX  85
$$

IAZ062-063-075>077-085>089-095>099-231400-
   SOUTHEAST IOWA

CITY           SKY/WX    TMP DP  RH WIND       PRES   REMARKS
BURLINGTON     SUNNY     78  77  96 SE6       29.97S HX  81
FAIRFIELD *    CLOUDY    79  75  89 S7        29.95R HX  82
KEOKUK *       SUNNY     81  77  89 SE5       29.96F HX  88
CENTERVILLE *    N/A     81  77  89 S6        29.96R HX  88
OTTUMWA        CLOUDY    80  76  87 S8        29.94R HX  86
WASHINGTON *   CLOUDY    79  79 100 SE7       29.96S HX  83
$$

ABBREVIATIONS USED IN REMARKS
   TC - TEMPERATURES IN CELSIUS
  WCI - WIND CHILL INDEX
   HX - HEAT INDEX
  VSB - VISIBILITY
$$





USA.gov is the U.S. government's official web portal to all federal, state and local government web resources and services.